FW0579 Weather Reports


Display with metric or nautical units.
time (UTC)temp
F
wind
direction
speed
MPH
gust
MPH
rain 1hr
in
rain 24hr
in
rain mn
in
humidity
%
barometer
mb
20260504194518 61 231 1.0 3.0 0.00 0.00 0.00 70 1014.7
20260504193021 60 73 0.0 3.0 0.00 0.00 0.00 73 1014.9
20260504191514 60 73 0.0 2.0 0.00 0.00 0.00 72 1015.1
20260504190018 60 72 1.0 3.0 0.00 0.00 0.00 72 1015.2
20260504184516 60 73 0.0 1.0 0.00 0.00 0.00 73 1015.0
20260504183016 60 71 0.0 4.0 0.00 0.00 0.00 74 1015.2
20260504181515 59 65 0.0 4.0 0.00 0.00 0.00 76 1015.2
20260504180010 59 65 2.0 6.0 0.00 0.00 0.00 75 1015.3
20260504174509 60 61 2.0 7.0 0.00 0.00 0.00 74 1015.2
20260504173006 60 211 0.0 3.0 0.00 0.00 0.00 71 1015.0
20260504171511 59 210 0.0 1.0 0.00 0.00 0.00 71 1014.8
20260504081522 56 254 8.0 13.0 0.00 0.00 0.00 78 1014.1
20260504044543 58 240 3.0 9.0 0.00 0.00 0.00 68 1013.1
20260504043040 58 270 3.0 11.0 0.00 0.00 0.00 67 1013.0
20260504041537 59 277 6.0 12.0 0.00 0.00 0.00 65 1012.8
20260504040038 59 234 6.0 12.0 0.00 0.00 0.00 65 1012.9
20260504034540 59 284 5.0 11.0 0.00 0.00 0.00 64 1012.7
20260504033034 60 246 6.0 12.0 0.00 0.00 0.00 63 1012.5
20260504031534 60 252 6.0 14.0 0.00 0.00 0.00 61 1012.2
20260504030042 61 242 5.0 12.0 0.00 0.00 0.00 62 1011.9
20260504024537 61 271 6.0 17.0 0.00 0.00 0.00 62 1011.8
20260504023036 62 290 8.0 14.0 0.00 0.00 0.00 62 1011.5
20260504021536 62 242 9.0 18.0 0.00 0.00 0.00 62 1011.3
20260504020035 63 274 10.0 16.0 0.00 0.00 0.00 61 1011.2
20260504014530 64 216 11.0 20.0 0.00 0.00 0.00 60 1011.1
20260504013030 65 253 11.0 18.0 0.00 0.00 0.00 60 1011.0
20260504011529 66 250 7.0 15.0 0.00 0.00 0.00 58 1010.9
20260504010030 67 233 5.0 13.0 0.00 0.00 0.00 57 1011.0
20260504004529 68 230 6.0 13.0 0.00 0.00 0.00 56 1011.0
20260504003028 69 227 6.0 12.0 0.00 0.00 0.00 55 1010.8
20260504001528 69 273 7.0 13.0 0.00 0.00 0.00 54 1010.9
20260504000028 69 360 6.0 15.0 0.00 0.00 0.00 55 1010.7
20260503234541 70 235 5.0 12.0 0.00 0.00 0.00 53 1010.7
20260503233027 71 212 5.0 10.0 0.00 0.00 0.00 52 1010.7
20260503231528 72 250 7.0 11.0 0.00 0.00 0.00 51 1010.7
20260503230028 72 304 2.0 9.0 0.00 0.00 0.00 52 1010.8
20260503224525 72 237 5.0 10.0 0.00 0.00 0.00 52 1010.9
20260503223024 71 221 4.0 14.0 0.00 0.00 0.00 53 1010.9
20260503221524 71 286 2.0 8.0 0.00 0.00 0.00 52 1011.0
20260503220038 70 235 5.0 11.0 0.00 0.00 0.00 55 1011.1
20260503214522 70 238 3.0 12.0 0.00 0.00 0.00 54 1011.2
20260503213024 71 287 1.0 10.0 0.00 0.00 0.00 54 1011.4
20260503211521 71 238 6.0 12.0 0.00 0.00 0.00 54 1011.4
20260503210019 70 291 2.0 7.0 0.00 0.00 0.00 55 1011.4
20260503204518 70 306 1.0 9.0 0.00 0.00 0.00 56 1011.4
20260503203027 69 250 3.0 10.0 0.00 0.00 0.00 55 1011.5
20260503201518 68 247 1.0 6.0 0.00 0.00 0.00 60 1011.7
20260503200011 66 232 3.0 9.0 0.00 0.00 0.00 60 1011.5